Theta_e
302 302 302 301 302 302 302 302 303 301 301 301 301 301 300 300 300 299 299 299 298 297 298 297 298 299 299
302 302 301 301 301 301 302 301 302 300 300 302 301 300 300 300 300 299 299 298 298 298 295 295 295 296 298
301 301 300 300 300 300 300 300 300 299 300 300 300 300 299 299 299 298 297 297 297 294 292 294 294 295 295
300 300 301 300 299 298 298 298 299 299 299 299 299 298 298 298 297 297 296 295 293 291 290 290 290 290 290
299 300 299 299 298 298 298 299 299 299 299 298 298 298 297 296 296 294 293 292 291 290 289 289 289 289 289
298 298 298 298 298 299 298 298 298 297 297 296 296 296 294 292 292 291 290 289 289 288 288 288 287 287 286
297 297 298 298 298 298 297 297 297 295 293 293 292 292 291 290 290 289 288 288 287 287 287 286 284 284 284
296 297 297 296 293 292 291 290 290 290 290 290 289 289 289 289 288 288 287 287 287 286 285 284 283 283 283
295 293 292 291 290 290 290 290 290 290 289 288 288 287 287 286 286 286 286 286 286 284 283 283 283 283 283
290 290 290 290 290 289 289 289 289 288 288 287 286 285 284 284 285 285 285 284 283 283 283 283 283 283 283
290 290 290 289 289 288 289 289 288 286 285 284 284 284 283 283 283 283 282 282 282 282 282 282 282 282 283
290 290 289 289 288 288 288 288 286 284 284 283 283 283 283 283 282 282 282 282 282 282 282 282 282 282 282
289 289 289 288 287 288 287 286 284 283 283 283 283 283 283 282 282 282 281 282 282 282 282 282 282 283 283
290 289 290 287 287 288 286 284 283 283 283 283 283 282 282 282 282 282 282 282 282 282 282 282 282 282 282
290 290 288 287 287 287 284 283 283 283 283 282 282 282 282 281 282 281 281 281 281 282 282 282 282 282 282
291 291 288 286 287 286 284 282 282 282 282 282 282 282 281 282 281 281 281 281 281 281 282 282 282 282 282
290 290 287 286 286 285 283 282 282 282 282 282 281 281 281 281 282 281 281 281 281 281 281 282 282 281 281
Wind_Speed
11 8 7 7 7 7 7 5 5 4 5 5 6 6 7 6 7 8 9 10 12 12 11 8 8 8 8
10 10 10 10 8 7 8 7 6 4 4 7 6 7 7 7 7 8 10 11 13 14 7 5 4 9 10
10 9 8 8 8 7 7 6 8 4 7 10 7 9 9 8 7 7 9 11 12 4 3 4 4 5 7
10 9 11 9 8 8 10 9 7 9 11 11 11 9 7 8 7 8 10 8 5 4 4 5 7 9 11
10 11 11 10 9 8 9 9 9 7 7 9 8 7 7 7 8 8 6 5 5 7 8 10 12 14 15
10 11 9 9 8 9 7 8 7 6 7 7 7 6 6 5 6 8 7 7 8 10 12 13 14 15 14
9 8 6 6 6 7 7 7 6 4 3 3 4 5 7 8 9 9 9 10 11 12 13 13 15 15 14
7 7 7 7 7 6 6 4 3 1 2 3 5 6 8 8 10 11 9 10 11 12 14 15 16 16 15
8 8 9 8 6 5 3 2 2 3 4 5 4 5 7 9 10 10 11 10 12 15 16 16 15 15 14
10 9 7 5 4 3 3 3 3 4 3 5 5 5 4 5 5 6 9 12 14 15 15 14 14 13 12
7 5 4 3 2 2 2 2 3 4 5 4 4 4 4 6 7 8 9 11 12 12 12 13 14 14 13
5 4 3 2 2 2 2 2 3 3 4 4 4 5 5 6 6 7 9 10 10 10 10 12 13 13 13
6 4 3 3 2 2 3 4 4 4 4 5 6 6 7 6 7 7 7 8 7 12 12 13 13 13 11
8 6 5 4 3 3 4 4 4 5 6 7 7 7 6 6 5 5 5 5 9 11 12 12 12 14 15
9 8 6 5 4 3 4 4 4 6 7 8 6 5 4 4 4 5 6 8 10 11 12 11 12 14 13
8 8 6 6 5 4 4 4 5 6 6 6 6 5 3 4 4 4 6 7 7 9 12 13 10 13 15
8 8 7 6 5 5 5 4 5 5 6 5 5 4 4 3 4 4 5 7 7 9 12 15 18 16 17
Wind_Direction
208 232 237 264 263 254 248 247 241 253 276 273 272 263 276 269 287 289 292 297 305 304 306 274 249 256 274
221 231 250 256 257 246 247 259 253 280 304 236 257 290 264 291 294 302 296 302 299 302 312 317 306 273 290
233 239 246 253 245 251 264 249 256 253 260 219 241 261 278 288 296 295 295 292 304 338 347 0 346 326 305
233 234 223 245 249 272 263 265 236 226 222 247 252 269 280 289 293 298 289 295 318 324 324 319 314 308 304
233 224 231 242 249 248 233 231 225 230 237 249 252 265 270 277 285 281 286 310 309 311 307 308 307 306 309
229 230 236 240 242 238 212 219 226 229 242 251 254 258 262 269 280 297 309 307 307 306 308 309 310 311 315
242 235 216 220 213 220 212 209 216 206 205 222 242 257 269 278 286 292 303 309 310 313 315 319 320 321 323
186 184 200 183 166 154 149 153 165 213 266 272 269 268 270 274 277 287 297 304 309 312 317 321 322 323 324
153 153 154 154 156 158 170 206 274 285 283 283 274 277 277 275 276 282 289 298 302 311 316 320 322 325 326
141 142 144 152 167 192 219 252 284 295 277 290 283 286 274 272 276 287 291 298 305 313 319 324 328 330 332
150 148 154 172 198 223 246 272 290 280 283 292 288 292 270 278 290 293 296 302 310 318 324 327 332 335 337
174 186 191 207 227 236 275 309 316 300 302 315 314 312 306 301 295 301 310 316 325 333 337 333 333 334 335
203 216 231 247 246 276 310 323 318 311 315 321 323 319 314 310 308 321 330 334 342 343 350 343 341 342 340
214 228 241 247 260 281 305 307 304 309 322 329 329 324 322 322 332 341 348 350 342 346 358 358 350 350 344
223 227 236 245 254 276 296 298 302 313 323 328 336 340 338 336 355 342 344 349 343 346 355 14 359 357 355
228 229 240 247 255 278 293 295 306 316 323 333 336 347 351 349 352 351 340 347 350 347 346 346 351 348 349
227 225 241 252 258 275 288 290 306 316 325 331 333 337 349 350 341 345 344 337 343 341 336 335 334 338 333